TimeMDT,TemperatureF,Dew PointF,Humidity,Sea Level PressureIn,VisibilityMPH,Wind Direction,Wind SpeedMPH,Gust SpeedMPH,PrecipitationIn,Events,Conditions,WindDirDegrees,DateUTC
12:53 AM,21.9,21.0,96,30.41,10.0,SW,3.5,-,N/A,,Clear,230,2012-10-07 06:53:00
1:41 AM,21.2,19.4,93,30.30,2.5,WSW,8.1,-,N/A,,Scattered Clouds,240,2012-10-07 07:41:00
1:43 AM,23.0,21.2,93,30.30,1.0,WSW,6.9,-,N/A,,Mist,240,2012-10-07 07:43:00
1:49 AM,23.0,21.2,93,30.30,0.2,WSW,5.8,-,N/A,Fog,Light Freezing Fog,250,2012-10-07 07:49:00
1:50 AM,23.0,21.9,96,30.40,0.2,WSW,5.8,-,N/A,Fog,Light Freezing Fog,250,2012-10-07 07:50:00
2:02 AM,21.2,21.2,100,30.29,0.5,WSW,5.8,-,N/A,Fog,Light Freezing Fog,250,2012-10-07 08:02:00
2:13 AM,21.2,19.4,93,30.29,0.2,WSW,5.8,-,N/A,Fog,Light Freezing Fog,240,2012-10-07 08:13:00
2:31 AM,21.2,19.4,93,30.28,0.5,WSW,5.8,-,N/A,Fog,Light Freezing Fog,250,2012-10-07 08:31:00
2:42 AM,21.2,19.4,93,30.28,0.2,WSW,6.9,-,N/A,Fog,Light Freezing Fog,240,2012-10-07 08:42:00
2:53 AM,21.0,19.9,96,30.38,0.2,WSW,8.1,-,N/A,Fog,Light Freezing Fog,250,2012-10-07 08:53:00
3:30 AM,21.2,19.4,93,30.26,0.5,WSW,6.9,-,N/A,Fog,Light Freezing Fog,250,2012-10-07 09:30:00
3:53 AM,21.0,19.0,92,30.35,0.8,West,3.5,-,N/A,,Mist,260,2012-10-07 09:53:00
4:32 AM,19.4,17.6,93,30.25,1.2,WSW,4.6,-,N/A,,Overcast,240,2012-10-07 10:32:00
4:50 AM,19.4,17.6,93,30.24,0.2,West,5.8,-,N/A,Fog,Light Freezing Fog,260,2012-10-07 10:50:00
4:53 AM,19.9,18.0,92,30.34,0.2,WSW,5.8,-,N/A,Fog,Light Freezing Fog,250,2012-10-07 10:53:00
5:04 AM,19.4,17.6,93,30.24,0.5,WSW,5.8,-,N/A,Fog,Light Freezing Fog,250,2012-10-07 11:04:00
5:19 AM,19.4,17.6,93,30.24,2.0,WSW,8.1,-,N/A,,Overcast,250,2012-10-07 11:19:00
5:28 AM,19.4,17.6,93,30.24,4.0,West,6.9,-,N/A,,Overcast,260,2012-10-07 11:28:00
5:53 AM,19.9,17.1,89,30.35,4.0,WSW,8.1,-,N/A,,Scattered Clouds,250,2012-10-07 11:53:00
5:58 AM,19.4,17.6,93,30.24,1.5,WSW,8.1,-,N/A,,Scattered Clouds,250,2012-10-07 11:58:00
6:03 AM,19.4,17.6,93,30.24,0.8,WSW,6.9,-,N/A,,Mist,250,2012-10-07 12:03:00
6:09 AM,19.4,17.6,93,30.24,1.2,WSW,6.9,-,N/A,,Scattered Clouds,250,2012-10-07 12:09:00
6:12 AM,19.4,17.6,93,30.24,3.0,WSW,8.1,-,N/A,,Scattered Clouds,250,2012-10-07 12:12:00
6:53 AM,19.0,16.0,88,30.34,10.0,West,6.9,-,N/A,,Clear,260,2012-10-07 12:53:00
7:53 AM,19.9,18.0,92,30.34,8.0,WSW,6.9,-,N/A,,Clear,250,2012-10-07 13:53:00
8:53 AM,27.0,25.0,92,30.32,9.0,WSW,5.8,-,N/A,,Clear,240,2012-10-07 14:53:00
9:53 AM,30.9,28.9,92,30.30,10.0,WSW,6.9,-,0.01,,Clear,240,2012-10-07 15:53:00
10:53 AM,36.0,32.0,86,30.29,10.0,WSW,10.4,-,N/A,,Clear,240,2012-10-07 16:53:00
11:53 AM,39.9,34.0,79,30.26,10.0,SW,10.4,-,N/A,,Clear,230,2012-10-07 17:53:00
12:53 PM,45.0,36.0,71,30.22,10.0,WSW,10.4,-,N/A,,Clear,240,2012-10-07 18:53:00
1:53 PM,48.0,34.0,58,30.17,10.0,West,11.5,-,N/A,,Clear,260,2012-10-07 19:53:00
2:53 PM,52.0,28.0,40,30.14,10.0,West,11.5,17.3,N/A,,Clear,280,2012-10-07 20:53:00
3:53 PM,53.1,19.9,27,30.13,10.0,NNW,12.7,-,N/A,,Clear,330,2012-10-07 21:53:00
4:53 PM,53.1,21.9,30,30.11,10.0,West,8.1,-,N/A,,Clear,280,2012-10-07 22:53:00
5:53 PM,50.0,27.0,41,30.11,10.0,WNW,5.8,-,N/A,,Clear,290,2012-10-07 23:53:00
6:53 PM,43.0,30.9,62,30.12,10.0,SW,3.5,-,N/A,,Clear,220,2012-10-08 00:53:00
7:53 PM,39.9,28.9,65,30.13,10.0,SW,8.1,-,N/A,,Clear,220,2012-10-08 01:53:00
8:53 PM,39.0,28.9,67,30.13,10.0,SW,10.4,-,N/A,,Clear,220,2012-10-08 02:53:00
9:53 PM,37.0,27.0,67,30.11,10.0,SW,6.9,-,N/A,,Clear,230,2012-10-08 03:53:00
10:53 PM,34.0,26.1,73,30.10,10.0,WSW,6.9,-,N/A,,Clear,240,2012-10-08 04:53:00
11:53 PM,35.1,26.1,70,30.08,10.0,WSW,8.1,-,N/A,,Clear,240,2012-10-08 05:53:00